Temperature
18 18 18 18 17 17 17 17 17 17 17 17 17 18 18 18 18 18 18 17 17 17 18 18 18 18 18 18 18 18 18 18 18 17 17 17 17 17 17 17 17 17 17
17 17 17 17 17 17 17 17 17 17 17 17 17 17 17 18 18 18 17 17 17 17 18 18 18 18 18 18 18 18 18 18 18 18 17 17 17 17 17 17 17 17 17
17 17 17 17 17 17 16 16 16 16 16 17 17 17 17 17 17 17 17 17 17 17 17 17 18 18 18 18 18 18 18 18 18 18 17 17 17 17 17 17 17 17 17
17 17 16 16 16 16 16 16 16 16 16 16 16 17 17 17 17 17 17 17 17 17 17 17 18 18 18 18 18 18 18 18 18 18 18 18 17 17 17 17 17 17 17
16 16 16 16 16 16 16 16 16 16 16 16 16 16 17 17 17 17 17 17 17 17 17 17 17 17 17 18 18 18 18 18 18 18 18 18 18 17 17 17 17 17 17
16 16 15 15 15 15 15 15 15 15 15 15 15 16 16 16 17 17 17 17 17 17 17 17 17 17 17 17 17 18 18 18 18 18 18 18 18 18 17 17 17 17 17
15 15 15 15 15 15 15 15 15 14 15 15 15 15 16 17 17 17 17 17 17 17 17 17 17 17 17 17 17 17 17 18 18 18 18 18 18 18 18 18 17 17 17
15 15 14 14 14 14 14 14 14 14 14 14 15 15 15 16 17 17 17 17 17 17 17 17 17 17 17 17 17 17 17 17 17 18 18 18 18 18 17 18 18 17 17
14 14 14 14 13 13 13 14 14 14 13 14 14 14 15 16 16 17 17 17 17 17 17 17 17 16 16 16 16 17 17 17 17 17 17 18 18 17 17 17 17 17 17
14 14 13 13 13 13 13 13 13 13 13 13 14 14 14 15 15 15 16 16 16 17 17 16 16 16 16 16 16 16 16 16 17 17 17 17 17 17 17 17 17 17 17
14 14 13 13 13 13 12 13 13 13 13 13 13 13 14 14 14 14 14 15 16 16 16 16 16 16 16 16 16 16 16 16 16 16 16 17 17 17 17 17 17 17 17
14 14 14 13 13 12 12 12 12 12 12 12 12 12 13 13 14 14 14 15 15 16 16 16 16 16 16 16 16 16 16 16 16 16 16 16 16 17 17 17 17 17 17
14 14 13 13 13 12 12 12 12 12 12 12 12 12 12 12 13 13 14 14 14 15 15 16 16 16 16 16 16 16 16 16 16 16 16 16 16 16 16 16 16 17 17
13 13 13 12 12 12 11 11 11 11 11 12 12 12 12 12 12 13 13 13 13 14 15 15 15 15 15 15 15 15 15 15 16 16 16 16 16 16 16 16 16 16 16
13 13 12 12 12 12 11 11 11 11 11 11 11 11 11 12 12 12 12 13 13 13 14 14 15 15 15 15 15 15 15 15 15 16 16 16 16 16 16 16 16 16 16
12 12 12 12 12 11 11 11 11 11 11 11 11 11 11 11 12 12 12 12 12 13 13 13 14 14 14 14 14 14 14 15 15 15 15 15 15 15 15 16 16 16 16
12 12 12 12 11 11 11 11 11 11 11 11 11 11 11 11 11 11 11 12 12 12 12 12 13 14 14 14 14 14 14 14 15 15 15 15 15 15 15 15 15 15 16
12 12 12 11 11 11 11 11 11 11 11 11 11 11 11 11 11 11 11 11 11 11 12 12 12 13 13 13 13 14 14 14 14 14 15 15 15 15 15 15 15 15 15
12 12 11 11 11 11 11 11 11 11 11 10 10 10 11 11 11 11 11 11 11 11 11 11 12 12 12 13 13 13 13 13 14 14 14 14 14 14 15 15 15 15 15
12 12 11 11 11 11 11 11 11 10 10 10 10 10 10 10 10 10 10 10 11 11 11 11 11 12 12 12 13 13 13 13 13 14 14 14 14 14 14 15 15 15 15
12 12 11 11 11 11 11 11 11 10 10 10 10 10 10 10 10 10 10 10 10 10 10 10 11 11 12 12 12 13 13 13 13 13 14 14 14 14 14 14 15 15 15
12 12 11 11 11 11 11 11 10 10 10 10 10 10 9 9 10 10 10 10 10 10 10 10 10 10 11 11 12 12 12 12 12 13 13 13 14 14 14 14 15 15 15
12 12 12 11 11 11 11 10 10 10 10 10 9 9 9 9 9 10 10 9 10 10 10 10 10 10 10 11 11 11 11 12 12 12 13 13 13 13 14 14 14 14 15
12 12 12 11 11 11 10 10 10 10 10 10 9 9 9 9 9 9 9 9 9 9 9 9 9 10 10 10 10 10 11 11 12 12 12 12 13 13 13 13 14 14 14
12 12 11 11 11 11 11 10 10 9 9 9 9 9 9 9 9 9 9 9 9 9 9 9 9 9 10 10 10 10 10 10 11 11 12 12 12 12 13 13 13 13 14
12 12 11 11 11 11 11 10 10 10 9 9 9 9 9 9 9 9 8 8 8 8 8 8 9 9 9 9 10 10 10 10 10 11 12 12 12 12 12 12 12 13 13
Wind_Speed
1 1 1 1 3 2 2 2 3 3 4 6 7 7 7 8 8 6 6 14 17 19 19 18 18 18 19 20 20 20 20 19 19 19 18 17 17 17 16 15 14 13 13
2 1 1 1 3 3 2 3 4 3 4 4 5 6 7 8 8 8 8 11 16 19 19 19 19 19 20 21 22 22 22 22 22 21 21 20 19 19 18 17 16 15 15
3 2 2 2 1 3 4 4 4 4 5 5 6 7 6 8 9 9 10 10 13 18 21 21 21 21 22 22 23 24 24 24 24 24 23 23 22 21 21 19 18 17 17
4 3 2 1 2 4 3 2 3 3 3 3 4 5 5 5 8 10 11 12 13 14 18 23 23 23 24 25 25 25 26 26 26 26 26 25 24 23 23 22 21 20 19
4 4 2 2 4 3 2 4 2 2 3 4 5 6 5 6 6 8 9 11 13 14 14 19 25 26 26 26 26 26 27 27 28 28 27 27 26 26 25 24 23 22 22
5 5 3 3 4 3 3 3 4 3 3 4 7 7 5 6 6 7 8 8 11 14 16 17 18 23 27 27 28 28 28 28 29 29 29 28 28 27 27 27 26 25 24
4 4 3 3 3 3 3 5 4 5 5 4 4 6 6 8 7 7 6 5 6 8 10 12 13 15 18 27 29 29 29 29 30 30 30 30 29 29 29 29 28 27 26
2 4 3 4 4 4 4 4 3 3 5 5 4 5 5 6 4 5 4 6 6 3 4 7 9 11 13 14 21 28 29 29 30 31 31 31 31 30 30 30 30 29 28
2 3 3 3 4 5 4 4 3 4 4 5 5 4 4 4 5 4 4 3 2 2 3 3 6 10 13 13 15 23 29 30 30 31 31 32 32 32 32 31 31 30 30
3 3 3 3 3 4 6 6 4 4 5 5 5 4 5 5 4 5 5 5 3 4 4 5 4 6 9 11 13 15 22 28 31 31 31 32 32 32 32 32 31 31 30
4 4 3 1 2 4 5 5 6 5 5 6 5 5 6 5 5 5 6 6 5 4 4 4 3 4 8 9 11 14 17 21 28 30 31 32 32 33 33 33 32 31 31
3 2 1 1 2 3 5 5 5 6 5 6 5 6 6 6 5 5 6 6 6 4 4 3 4 3 7 8 10 11 13 17 22 26 29 30 31 32 33 34 33 32 31
3 3 3 2 3 4 5 5 6 6 6 7 6 6 6 6 6 5 5 6 6 5 5 4 5 4 5 5 6 8 12 15 18 21 25 27 29 30 31 33 33 33 32
4 3 3 3 4 5 6 5 5 7 6 6 8 7 5 6 6 6 5 6 6 7 6 6 3 3 3 3 4 6 8 12 15 18 21 24 27 29 30 31 32 32 32
5 6 6 6 5 5 6 6 6 7 7 7 7 7 6 6 6 6 5 5 6 7 7 6 4 2 2 5 6 7 8 11 14 17 20 22 24 26 27 29 30 32 32
5 6 6 7 7 6 6 6 6 7 7 7 7 8 7 6 6 6 6 6 6 7 8 6 6 5 3 3 6 7 8 10 12 16 18 20 22 24 25 27 29 30 31
5 6 7 7 7 7 7 6 7 8 8 8 8 8 8 8 6 6 6 6 6 6 8 7 6 5 4 4 3 5 7 8 10 14 17 19 21 22 24 25 27 28 30
5 6 6 7 8 8 7 7 8 8 8 8 8 8 8 8 8 7 7 7 7 7 7 9 8 7 7 6 5 5 5 8 7 11 15 18 20 21 23 24 25 27 29
6 6 7 7 7 8 8 7 7 8 8 8 8 8 8 8 9 7 7 7 7 8 7 7 8 6 6 5 5 6 6 5 6 8 11 15 18 19 21 23 23 25 27
6 7 7 7 7 8 8 7 7 8 8 8 8 8 9 9 9 8 8 8 8 8 7 7 7 7 7 7 5 5 5 5 5 6 5 8 12 16 18 20 21 22 25
8 7 7 7 7 8 8 5 5 8 7 8 8 9 10 11 11 9 10 7 7 6 6 6 7 7 7 6 5 5 6 4 5 4 4 4 5 6 9 15 18 20 22
6 6 7 7 8 9 3 2 4 7 8 9 9 9 10 12 13 15 16 15 12 10 8 7 7 8 7 6 5 5 5 4 4 3 3 4 4 5 5 7 13 18 20
6 7 7 7 8 8 8 7 8 6 9 9 10 10 12 13 11 8 10 13 14 17 16 11 11 10 9 8 6 6 6 6 5 3 2 3 2 2 1 4 12 16 18
6 7 7 8 8 9 8 9 10 8 9 10 11 11 11 11 12 9 9 9 9 10 12 12 12 12 12 9 8 7 7 6 5 4 3 3 2 1 1 2 6 13 16
6 7 8 8 8 8 8 9 10 7 9 11 11 11 10 10 11 10 8 9 9 9 12 15 15 15 15 14 9 5 6 5 5 4 4 3 2 2 1 1 3 8 12
7 8 8 8 8 9 9 11 11 7 9 9 9 9 11 11 9 8 8 8 10 9 10 11 9 11 12 13 14 10 8 7 5 4 5 4 4 3 2 1 2 4 6
Wind_Direction
354 330 333 312 280 271 240 229 240 251 254 255 257 257 264 266 273 272 204 193 195 195 196 199 201 205 205 204 204 203 202 201 198 195 193 192 189 186 185 183 181 178 175
12 345 287 264 267 261 247 239 242 238 241 241 244 251 257 263 270 266 243 214 208 205 205 207 208 211 211 210 209 207 206 205 203 200 198 197 195 192 191 190 188 186 184
20 335 293 277 292 277 250 234 244 241 240 239 238 241 242 242 248 250 250 240 224 217 213 213 214 214 216 215 213 211 209 208 206 203 202 201 199 197 195 195 194 193 192
18 333 321 9 346 299 273 252 245 260 274 279 268 259 252 236 236 237 238 237 233 232 223 220 219 219 220 219 217 215 212 210 209 206 205 204 202 201 199 199 198 198 197
22 355 349 17 325 310 307 312 15 347 317 312 291 262 253 246 237 238 230 230 227 228 230 224 220 221 223 223 221 218 215 213 211 210 208 207 205 203 202 202 201 201 201
33 1 322 26 346 323 326 347 337 312 290 277 283 291 279 261 247 241 238 234 227 225 227 227 218 222 224 225 224 221 219 216 214 213 212 210 208 206 204 204 204 204 204
22 331 333 350 316 321 352 336 331 317 297 275 278 285 276 263 249 233 226 230 236 241 234 223 214 214 219 224 225 223 222 220 217 214 213 212 210 208 206 206 206 206 206
349 321 19 332 341 343 307 286 294 298 300 306 298 297 296 289 284 257 226 220 227 239 260 247 222 219 220 215 219 223 225 224 222 218 214 212 212 210 209 207 207 207 207
316 338 332 324 334 312 317 343 308 296 300 306 295 286 294 301 326 314 317 276 215 211 247 255 246 233 229 226 220 220 223 225 225 222 218 214 212 211 211 209 208 208 208
280 277 285 304 326 322 319 312 359 342 315 303 299 290 279 295 298 307 312 304 273 238 232 248 250 234 237 236 233 229 225 223 224 224 222 217 213 212 212 211 211 210 210
259 244 232 250 314 300 310 327 323 315 309 302 307 311 309 301 271 265 285 296 294 269 245 229 228 232 235 233 235 238 235 226 224 225 225 222 216 214 213 214 214 213 213
282 277 249 113 293 299 315 315 307 295 287 294 300 298 297 294 289 280 279 286 284 279 267 250 233 226 234 230 236 244 242 233 228 226 226 224 220 216 215 215 216 216 215
323 35 26 8 315 306 296 286 286 283 283 284 283 278 282 291 293 288 287 290 294 291 278 255 232 210 230 226 227 242 244 237 231 228 227 224 222 219 216 216 217 218 217
329 356 331 301 289 288 290 295 294 283 276 273 273 272 275 279 283 286 281 285 291 293 286 276 251 209 202 209 210 231 244 238 235 231 229 226 224 221 218 216 217 217 217
318 338 337 316 298 287 282 283 277 281 284 279 275 275 266 268 272 272 275 272 272 280 283 288 286 249 204 204 201 224 238 237 236 234 231 229 225 222 218 216 217 217 216
296 300 297 297 295 289 281 275 275 274 276 273 264 262 267 266 273 278 274 271 267 269 277 284 287 274 268 255 215 223 240 245 239 236 231 227 225 222 219 217 216 215 213
292 290 286 287 288 286 281 274 273 272 274 274 276 273 268 264 264 272 279 276 270 269 276 281 285 286 272 269 247 238 246 245 243 237 231 227 224 221 220 218 216 214 213
280 282 285 288 288 288 288 284 283 284 280 279 277 276 276 274 266 259 262 269 271 269 264 269 276 278 265 253 242 237 252 258 245 237 229 227 224 222 220 219 218 217 215
281 283 286 286 287 289 287 283 280 279 279 279 279 278 276 273 272 266 261 262 268 273 270 268 273 275 272 260 253 242 240 250 255 246 229 224 221 220 219 218 218 218 216
278 276 277 280 284 285 283 280 281 280 280 280 279 277 275 270 267 268 267 259 261 264 272 272 270 270 267 259 247 242 243 232 239 243 233 221 217 218 219 217 215 214 213
279 282 288 288 285 282 281 291 290 290 296 297 291 283 277 275 270 263 265 264 272 273 274 274 272 273 271 270 263 253 251 240 233 225 221 214 205 210 213 216 214 211 210
274 279 282 285 285 289 302 290 281 297 295 290 287 284 283 275 265 250 247 249 250 256 261 267 272 270 274 283 286 282 273 258 252 226 220 228 203 206 205 202 204 202 202
283 282 280 280 281 283 268 248 244 268 281 280 279 280 282 282 293 284 263 251 249 248 243 249 261 266 273 278 285 286 281 270 260 241 225 243 215 212 223 202 191 191 194
278 279 279 279 279 280 264 244 238 252 271 272 270 269 269 272 278 280 284 277 266 257 245 240 243 250 256 262 266 266 270 271 262 243 218 232 207 188 133 94 173 181 186
274 274 277 275 274 273 256 239 229 261 269 272 271 271 269 268 265 258 261 268 271 270 267 255 239 239 240 244 245 257 261 255 255 239 215 204 190 162 122 100 121 161 171
271 275 276 276 276 276 260 234 219 252 271 278 280 274 269 265 262 247 251 262 268 271 277 284 273 258 249 242 232 231 240 244 246 238 206 189 177 159 153 124 136 141 142
Height
1552 1552 1552 1552 1553 1553 1554 1554 1555 1555 1556 1557 1557 1558 1559 1560 1561 1563 1563 1563 1564 1567 1568 1570 1572 1573 1575 1577 1580 1582 1584 1586 1589 1591 1593 1595 1597 1599 1601 1603 1605 1607 1609
1550 1550 1551 1551 1551 1551 1551 1551 1552 1552 1553 1554 1554 1554 1555 1556 1557 1558 1559 1560 1561 1563 1564 1566 1567 1569 1571 1574 1576 1579 1581 1583 1586 1588 1591 1593 1595 1597 1599 1602 1604 1606 1608
1548 1548 1549 1549 1549 1549 1549 1549 1549 1550 1550 1551 1551 1551 1552 1552 1552 1553 1555 1556 1556 1557 1559 1561 1563 1564 1567 1569 1572 1574 1577 1580 1583 1585 1587 1590 1592 1595 1597 1599 1602 1604 1606
1547 1547 1547 1547 1547 1547 1547 1548 1547 1547 1548 1548 1548 1548 1549 1549 1548 1549 1550 1551 1552 1553 1554 1555 1557 1559 1562 1564 1567 1569 1572 1575 1578 1581 1584 1586 1589 1591 1594 1597 1599 1602 1604
1546 1546 1546 1545 1545 1545 1546 1546 1545 1545 1545 1545 1545 1545 1546 1545 1545 1546 1546 1546 1547 1548 1549 1551 1552 1554 1556 1558 1561 1564 1567 1570 1573 1576 1579 1582 1585 1588 1591 1593 1596 1599 1601
1544 1544 1544 1543 1543 1543 1543 1543 1543 1542 1542 1542 1542 1543 1542 1542 1542 1542 1542 1542 1543 1543 1544 1546 1547 1548 1550 1552 1555 1557 1561 1564 1567 1571 1574 1577 1581 1584 1587 1589 1592 1595 1598
1543 1542 1542 1541 1541 1541 1541 1541 1540 1540 1540 1540 1540 1540 1539 1538 1538 1538 1538 1539 1539 1540 1541 1541 1542 1543 1544 1546 1548 1551 1554 1558 1561 1565 1568 1572 1575 1579 1582 1585 1588 1591 1594
1541 1541 1540 1539 1539 1539 1539 1538 1538 1537 1537 1538 1538 1537 1536 1536 1534 1534 1534 1534 1535 1536 1537 1537 1538 1539 1539 1540 1542 1545 1548 1551 1554 1558 1562 1565 1569 1573 1576 1580 1583 1586 1589
1540 1539 1538 1537 1537 1537 1537 1536 1536 1535 1535 1535 1535 1536 1535 1533 1532 1531 1531 1532 1532 1532 1533 1533 1533 1534 1535 1536 1537 1539 1542 1544 1547 1551 1554 1558 1562 1566 1570 1574 1577 1581 1584
1538 1537 1536 1536 1535 1534 1534 1534 1534 1532 1532 1532 1533 1533 1533 1533 1532 1530 1529 1529 1529 1529 1529 1529 1530 1530 1530 1531 1532 1534 1535 1537 1540 1544 1547 1551 1555 1559 1563 1567 1571 1575 1579
1536 1535 1534 1533 1532 1532 1532 1531 1530 1530 1530 1530 1530 1530 1529 1529 1529 1529 1527 1527 1526 1526 1526 1525 1525 1526 1526 1527 1527 1528 1530 1531 1533 1536 1540 1544 1548 1552 1556 1560 1565 1569 1573
1534 1534 1532 1531 1530 1529 1529 1528 1527 1527 1527 1526 1526 1526 1526 1526 1526 1526 1525 1524 1523 1523 1522 1522 1521 1522 1522 1522 1522 1523 1524 1525 1527 1530 1533 1536 1540 1544 1548 1553 1557 1562 1566
1532 1531 1530 1529 1528 1527 1526 1525 1524 1524 1523 1523 1522 1522 1522 1522 1523 1523 1522 1521 1520 1519 1519 1518 1518 1518 1518 1517 1517 1518 1518 1520 1521 1524 1526 1529 1532 1536 1540 1544 1549 1554 1559
1529 1528 1527 1526 1525 1523 1523 1522 1521 1520 1520 1519 1519 1519 1518 1518 1519 1519 1519 1518 1517 1516 1515 1515 1514 1514 1513 1513 1513 1513 1513 1514 1515 1517 1519 1522 1525 1528 1532 1536 1541 1546 1551
1526 1525 1524 1523 1521 1520 1519 1518 1517 1517 1516 1515 1515 1515 1514 1514 1514 1514 1514 1515 1515 1513 1511 1511 1511 1510 1510 1509 1508 1509 1509 1509 1510 1511 1512 1515 1517 1520 1524 1528 1533 1538 1543
1522 1521 1520 1519 1518 1517 1516 1515 1513 1513 1512 1511 1511 1510 1510 1510 1509 1510 1510 1510 1510 1509 1507 1507 1507 1507 1506 1505 1505 1504 1504 1504 1504 1505 1506 1507 1510 1513 1516 1520 1524 1529 1534
1519 1518 1517 1516 1514 1513 1512 1511 1510 1509 1508 1507 1506 1506 1505 1505 1504 1504 1505 1504 1504 1504 1503 1502 1503 1502 1502 1501 1500 1500 1500 1499 1499 1499 1500 1501 1503 1505 1509 1512 1516 1520 1526
1515 1514 1513 1512 1511 1510 1509 1507 1506 1505 1504 1503 1502 1501 1500 1500 1499 1499 1499 1499 1499 1499 1499 1497 1497 1497 1497 1496 1496 1495 1495 1494 1493 1493 1494 1495 1496 1499 1501 1504 1508 1512 1518
1512 1511 1510 1508 1507 1506 1504 1503 1502 1500 1499 1498 1497 1496 1495 1495 1494 1494 1493 1493 1493 1493 1493 1492 1491 1492 1492 1492 1491 1490 1490 1489 1489 1488 1488 1489 1490 1492 1494 1497 1501 1505 1510
1509 1507 1506 1505 1503 1502 1500 1499 1497 1496 1495 1493 1492 1491 1490 1489 1488 1488 1488 1487 1488 1487 1487 1487 1486 1486 1486 1487 1486 1486 1485 1484 1484 1483 1483 1483 1485 1486 1488 1491 1494 1498 1502
1506 1504 1503 1501 1499 1498 1496 1495 1493 1492 1490 1488 1486 1485 1484 1483 1483 1482 1482 1482 1482 1482 1481 1481 1481 1481 1481 1481 1481 1481 1480 1479 1479 1479 1478 1479 1480 1481 1482 1484 1487 1490 1495
1502 1501 1499 1497 1495 1494 1493 1490 1488 1486 1484 1482 1480 1478 1478 1477 1476 1476 1476 1475 1476 1476 1475 1475 1475 1475 1475 1476 1476 1476 1476 1475 1474 1475 1474 1474 1475 1475 1477 1478 1481 1484 1488
1498 1496 1494 1493 1491 1489 1487 1485 1483 1480 1478 1475 1473 1472 1471 1471 1471 1470 1469 1468 1468 1469 1469 1469 1468 1468 1469 1470 1471 1471 1471 1471 1470 1470 1471 1469 1470 1471 1472 1473 1476 1479 1483
1494 1492 1490 1488 1486 1484 1482 1480 1477 1475 1472 1470 1468 1466 1465 1464 1464 1464 1463 1462 1461 1461 1462 1462 1461 1461 1462 1464 1465 1466 1466 1466 1466 1466 1467 1466 1466 1467 1468 1469 1471 1474 1478
1489 1488 1486 1484 1482 1480 1478 1475 1472 1469 1467 1465 1463 1462 1461 1459 1458 1457 1456 1455 1454 1454 1454 1455 1455 1454 1455 1456 1458 1459 1460 1461 1460 1461 1462 1462 1462 1463 1465 1466 1468 1471 1474
1485 1483 1481 1479 1477 1475 1473 1470 1468 1465 1462 1460 1458 1457 1456 1454 1452 1451 1450 1449 1447 1447 1447 1447 1447 1447 1447 1448 1450 1452 1453 1455 1456 1456 1457 1458 1459 1460 1462 1463 1465 1467 1470